Volver al catálogo

STARLINK-32582

ActivoComunicacionesVLEO
NORAD 62033·PAYLOAD·🇺🇸 United States

Lanzado Nov 21, 2024 desde Cape Canaveral Space Force Station

Loading…

Próximos Pases (próximas 24 horas)

TLE

ActualizadoSource: CelesTrak SupGP

Época: Sep 15, 2026, 03:01 UTC

1 62033C 24216B   26258.12618056 -.00010429  00000+0 -37765-3 0  2587
2 62033  43.0025 273.5000 0001482 269.2205 192.7676 15.27591705    19

Sigue STARLINK-32582 en tiempo real con AllMySat

Download on the App Store